Wenatchee, WA
on Monday, December 17, 2012

Monday
Previous Day Next Day
Daily Summary
 ActualAverageRecord
Temperature
Mean Temperature °F 25°F  
Max Temperature 44°F 31°F 52°F (1998)
Min Temperature 24°F 19°F -12°F (1964)
Degree Days
Heating Degree Days 31 40  
Month to date heating degree days 494 657  
Since 1 July heating degree days 1653 2539  
Cooling Degree Days 0 0  
Month to date cooling degree days 0 0  
Year to date cooling degree days 888 249  
Moisture
Dew Point 27°F   
Average Humidity 69    
Maximum Humidity 92    
Minimum Humidity 45    
Precipitation
Precipitation 0.01 in 0.08 in 0.23 in (1994)
Month to date precipitation 0.88 1.41  
Year to date precipitation 8.39 15.96  
Snow
Snow 0.00 in 0.50 in in ()
Month to date snowfall 8.4  
Since 1 July snowfall 16.3  
Snow Depth in   
Wind
Wind Speed 10 mph   
Max Wind Speed 29 mph   
Max Gust Speed 38 mph   
Visibility 5 miles   
Events Fog , Snow   

Key: T is trace of precipitation, MM is missing value
Source: NWS Daily Summary
Time(PST)TemperatureDew PointHumidity Pressure Visibility Wind DirectionWind SpeedGust SpeedPrecipitationEvents Conditions
12:02 AM 30.2°F 28.4°F 93% 29.13 in 0.2 miles NE 3.5 mph - N/A Fog Light Freezing Fog
12:09 AM 30.2°F 28.4°F 93% 29.14 in 1.0 miles Calm Calm - N/A   Mist
12:16 AM 30.2°F 28.4°F 93% 29.13 in 3.0 miles Calm Calm - N/A   Overcast
12:22 AM 30.2°F 28.4°F 93% 29.14 in 1.8 miles South 4.6 mph - N/A   Overcast
12:29 AM 30.2°F 28.4°F 93% 29.13 in 0.2 miles Calm Calm - N/A Fog Light Freezing Fog
12:43 AM 30.2°F 28.4°F 93% 29.12 in 1.0 miles Calm Calm - N/A   Mist
12:55 AM 30.0°F 28.9°F 96% 29.15 in 2.0 miles Calm Calm - N/A   Overcast
1:13 AM 30.2°F 28.4°F 93% 29.11 in 1.2 miles Calm Calm - 0.00 in Snow Light Snow
1:24 AM 30.2°F 28.4°F 93% 29.10 in 1.0 miles Calm Calm - 0.00 in   Overcast
1:31 AM 30.2°F 28.4°F 93% 29.10 in 2.0 miles Calm Calm - 0.00 in   Overcast
1:41 AM 30.2°F 28.4°F 93% 29.10 in 4.0 miles Calm Calm - 0.00 in   Overcast
1:46 AM 30.2°F 28.4°F 93% 29.10 in 1.8 miles Calm Calm - 0.00 in Snow Light Snow
1:53 AM 30.2°F 28.4°F 93% 29.10 in 0.5 miles Calm Calm - 0.00 in Fog Light Freezing Fog
1:55 AM 30.0°F 28.0°F 92% 29.13 in 0.5 miles Calm Calm - 0.00 in Fog Light Freezing Fog
2:14 AM 30.2°F 28.4°F 93% 29.10 in 1.0 miles Calm Calm - 0.00 in Snow Light Snow
2:24 AM 30.2°F 28.4°F 93% 29.09 in 3.0 miles Calm Calm - 0.00 in Snow Light Snow
2:55 AM 30.0°F 28.9°F 96% 29.11 in 4.0 miles Calm Calm - 0.00 in Snow Light Snow
3:31 AM 30.2°F 28.4°F 93% 29.07 in 2.5 miles Calm Calm - 0.00 in Snow Light Snow
3:45 AM 30.2°F 28.4°F 93% 29.06 in 1.8 miles Calm Calm - 0.00 in Snow Light Snow
3:52 AM 30.2°F 28.4°F 93% 29.07 in 3.0 miles Calm Calm - 0.00 in Snow Light Snow
3:53 AM 30.0°F 28.9°F 96% 29.10 in 3.0 miles Calm Calm - 0.00 in Snow Light Snow
4:05 AM 30.2°F 28.4°F 93% 29.06 in 5.0 miles Calm Calm - 0.00 in   Overcast
4:21 AM 30.2°F 28.4°F 93% 29.06 in 6.0 miles Calm Calm - 0.00 in   Overcast
4:45 AM 30.2°F 28.4°F 93% 29.09 in 5.0 miles WSW 3.5 mph - 0.01 in   Overcast
4:52 AM 30.2°F 28.4°F 93% 29.09 in 2.0 miles Calm Calm - 0.01 in   Overcast
4:55 AM 30.0°F 28.9°F 96% 29.12 in 1.8 miles NW 3.5 mph - 0.01 in   Overcast
5:13 AM 30.2°F 28.4°F 93% 29.10 in 3.0 miles Calm Calm - 0.00 in Snow Light Snow
5:31 AM 30.2°F 28.4°F 93% 29.09 in 2.5 miles Calm Calm - 0.00 in Snow Light Snow
5:55 AM 30.0°F 28.0°F 92% 29.13 in 1.5 miles West 5.8 mph - 0.00 in   Mostly Cloudy
5:58 AM 30.2°F 28.4°F 93% 29.10 in 0.8 miles West 3.5 mph - N/A   Overcast
6:09 AM 30.2°F 28.4°F 93% 29.09 in 0.2 miles North 3.5 mph - N/A Fog Light Freezing Fog
6:20 AM 28.4°F 26.6°F 93% 29.08 in 0.2 miles NNE 8.1 mph - N/A Fog Light Freezing Fog
6:27 AM 32.0°F 30.2°F 93% 29.09 in 1.0 miles WNW 10.4 mph 19.6 mph N/A   Mostly Cloudy
6:30 AM 30.2°F 28.4°F 93% 29.09 in 3.0 miles Calm Calm - N/A   Mostly Cloudy
6:37 AM 30.2°F 28.4°F 93% 29.10 in 10.0 miles NNW 6.9 mph - N/A   Mostly Cloudy
6:55 AM 35.1°F 28.9°F 78% 29.15 in 10.0 miles NW 19.6 mph 28.8 mph N/A   Scattered Clouds
7:55 AM 39.9°F 28.9°F 65% 29.17 in 10.0 miles NW 19.6 mph 28.8 mph N/A   Partly Cloudy
8:55 AM 39.9°F 28.0°F 63% 29.23 in 10.0 miles NNW 11.5 mph 18.4 mph N/A   Clear
9:55 AM 42.1°F 25.0°F 51% 29.29 in 10.0 miles West 18.4 mph 24.2 mph N/A   Clear
10:55 AM 43.0°F 25.0°F 49% 29.35 in 10.0 miles West 16.1 mph - N/A   Partly Cloudy
11:55 AM 41.0°F 25.0°F 53% 29.42 in 10.0 miles West 17.3 mph 29.9 mph N/A   Scattered Clouds
12:55 PM 41.0°F 21.9°F 47% 29.46 in 10.0 miles West 18.4 mph 31.1 mph N/A   Clear
1:55 PM 39.9°F 21.0°F 47% 29.52 in 10.0 miles West 18.4 mph - N/A   Clear
4:55 PM 37.0°F 21.0°F 52% 29.65 in 10.0 miles WNW 12.7 mph - N/A   Clear
5:55 PM 35.1°F 21.9°F 59% 29.69 in 10.0 miles WNW 10.4 mph - N/A   Clear
6:55 PM 32.0°F 21.9°F 66% 29.73 in 10.0 miles Calm Calm - N/A   Clear
7:55 PM 32.0°F 25.0°F 75% 29.75 in 10.0 miles NW 3.5 mph - N/A   Clear
8:55 PM 30.0°F 27.0°F 88% 29.79 in 10.0 miles South 5.8 mph - N/A   Clear
9:55 PM 28.0°F 25.0°F 88% 29.81 in 10.0 miles SW 5.8 mph - N/A   Clear
10:55 PM 25.0°F 23.0°F 92% 29.83 in 10.0 miles East 4.6 mph - N/A   Clear
11:55 PM 25.0°F 23.0°F 92% 29.84 in 10.0 miles Variable 4.6 mph - N/A   Clear
Moon Phase
Dec. 17 Dec. 20 Dec. 28 Jan. 04 Jan. 11
Sunrise:07:43 AM (PST) Moon Rise:10:36 AM (PST)12/17
Sunset:04:11 PM (PST) Moon Set:09:58 PM (PST)12/17

Copyright © 2014 The Weather Underground, Inc.